#timestamp,LO_Frequency,Hit,StdDev 
1533182415.3,286047001.7,N
1533182435.1,286047004.4,Y
1533182455.9,286047000.1,P
1533182475.7,286047002.3,N
1533182495.5,286047002.5,N
1533182515.4,286047002.2,N
1533182535.2,286047001.9,N
1533182555.0,286047002.5,Y
1533182555.9,286047002.5,P
1533182575.8,286047001.1,N
1533182595.6,286047000.4,N
1533182615.4,286046999.9,N
1533182635.3,286047000.1,N
1533182655.1,286047000.0,N
1533182656.0,286047000.0,N
1533182675.8,286047002.7,N
1533182695.7,286047002.4,N
1533182715.5,286046999.8,N
1533182735.3,286047002.2,N
1533182755.1,286047002.8,N
1533182775.9,286047002.1,N
1533182795.7,286047001.4,N
1533182815.5,286047001.7,N
1533182835.4,286047004.4,Y
1533182855.2,286047002.2,P
1533182875.0,286047002.0,P
1533182875.9,286047002.0,P
1533182895.8,286047001.6,Y
1533182915.6,286047000.3,P
1533182935.4,286047000.0,N
1533182955.3,286047000.9,N
1533182975.1,286047000.5,N
1533182995.8,286047000.3,N
1533183015.7,286047000.0,N
1533183035.5,286047002.4,Y
1533183055.3,286047000.7,P
1533183075.2,286047000.0,N
1533183095.9,286047001.0,P
1533183115.7,286047000.9,N
1533183135.6,286047000.5,N
1533183155.4,286047000.1,N
1533183175.2,286047000.3,N
1533183195.1,286047000.0,N
1533183196.0,286047000.0,N
1533183215.8,286046999.9,N
1533183235.6,286046999.9,N
1533183255.5,286046999.8,N
1533183275.3,286046999.7,N
1533183295.1,286047002.8,Y
1533183315.9,286046999.7,P
1533183335.7,286047002.7,P
1533183355.5,286047002.3,N
1533183375.3,286047002.3,N
1533183395.2,286047002.5,N
1533183415.0,286047002.2,N
1533183415.9,286047002.2,N
1533183435.7,286047002.2,N
1533183455.6,286047002.8,N
1533183475.4,286047002.0,N
1533183495.2,286047002.2,N
1533183515.1,286047002.1,N
1533183516.0,286047002.1,N
1533183535.8,286047001.9,N
1533183555.6,286047001.5,N
1533183575.5,286047001.4,N
1533183595.3,286047002.0,N
1533183615.1,286047001.9,N
1533183635.9,286047004.3,Y
1533183655.7,286047002.5,P
1533183675.5,286047000.3,N
1533183695.4,286047000.0,N
1533183715.2,286047000.3,N
1533183735.0,286047002.7,N
1533183735.9,286047002.7,N
1533183755.8,286047002.4,N
1533183775.6,286047002.4,N
1533183795.4,286047000.1,N
1533183815.3,286047002.6,N
1533183835.1,286047002.6,N
1533183836.0,286047002.6,N
1533183855.8,286046999.8,N
1533183875.6,286047002.3,N
1533183895.5,286047001.9,N
1533183915.3,286047002.6,N
1533183935.1,286047002.2,N
1533183955.9,286047001.7,N
1533183975.7,286047002.4,N
1533183995.5,286047001.9,N
1533184015.4,286047001.6,N
1533184035.2,286047001.6,N
1533184055.0,286047001.6,N
1533184055.9,286047001.6,N
1533184075.8,286047001.5,N
1533184095.6,286047001.8,N
1533184115.4,286047002.1,N
1533184135.3,286047001.4,N
1533184155.1,286047001.7,N
1533184156.0,286047001.7,N
1533184175.8,286047001.7,N
1533184195.7,286047004.0,Y
1533184215.5,286046999.9,P
1533184235.3,286046999.9,N
1533184255.1,286046999.9,N
1533184275.9,286046999.9,N
1533184295.7,286047000.2,N
1533184315.5,286046999.8,N
1533184335.4,286046999.8,N
1533184355.2,286046999.7,N
1533184375.0,286047002.7,Y
1533184375.9,286047002.7,P
1533184395.8,286046999.8,N
1533184415.6,286046999.7,N
1533184435.4,286046999.7,N
1533184455.3,286046999.7,N
1533184475.1,286047002.8,N
1533184495.8,286047002.7,N
1533184515.7,286047002.3,N
1533184535.5,286047002.3,N
1533184555.3,286047002.3,N
1533184575.2,286047002.6,N
1533184595.9,286047002.6,N
1533184615.7,286047002.6,N
1533184635.6,286047002.3,N
1533184655.4,286047002.5,N
1533184675.2,286047002.6,N
1533184695.0,286047002.5,N
1533184695.9,286047002.5,N
1533184715.8,286047002.2,N
1533184735.8,286047002.2,N
1533184755.6,286047002.2,N
1533184775.4,286047002.2,N
1533184795.3,286047002.2,N
1533184815.1,286047002.8,N
1533184835.8,286047002.7,N
1533184855.7,286047002.2,N
1533184875.5,286047002.5,N
1533184895.3,286047002.2,N
1533184915.2,286047002.2,N
1533184935.9,286047002.2,N
1533184955.7,286047002.2,N
1533184975.6,286046999.7,N
1533184995.4,286047001.5,N
1533185015.2,286047002.8,Y
1533185035.1,286047001.0,P
1533185036.0,286047001.0,N
1533185055.8,286047001.0,N
1533185075.6,286046998.5,Y
1533185095.5,286046999.2,P
1533185115.3,286046998.9,N
1533185135.1,286046999.0,N
1533185155.9,286046999.6,N
1533185175.7,286046999.6,N
1533185195.5,286046998.9,N
1533185215.4,286046999.2,N
1533185235.2,286046999.2,N
1533185255.0,286046998.8,N
1533185255.9,286046998.8,N
1533185275.7,286046998.7,N
1533185295.6,286046999.4,N
1533185315.4,286046999.3,N
1533185335.2,286046999.3,N
1533185355.1,286046998.3,N
1533185356.0,286046998.3,N
1533185375.8,286046998.6,N
1533185395.6,286046998.3,N
1533185415.5,286046998.3,N
1533185435.3,286046998.6,N
1533185455.1,286047000.7,N
1533185475.9,286046998.5,N
1533185495.7,286046998.6,N
1533185515.5,286046998.3,N
1533185535.4,286046998.4,N
1533185555.2,286047001.2,N
1533185575.0,286046998.3,N
1533185575.9,286046998.3,N
1533185595.7,286047001.2,N
1533185615.6,286046998.2,N
1533185635.4,286047001.1,N
1533185655.2,286046998.7,N
1533185675.1,286046998.7,N
1533185676.0,286046998.7,N
1533185695.8,286046998.8,N
1533185715.6,286046998.7,N
1533185735.5,286046998.8,N
1533185755.3,286046998.8,N
1533185775.1,286046998.9,N
1533185795.9,286046998.3,N
1533185815.7,286046998.7,N
1533185835.5,286046998.7,N
1533185855.4,286046999.1,N
1533185875.2,286046998.8,N
1533185895.0,286046998.7,N
1533185895.9,286046998.7,N
1533185915.8,286046998.8,N
1533185935.6,286046998.8,N
1533185955.4,286046998.9,N
1533185975.2,286046998.9,N
1533185995.1,286046999.0,N
1533185996.0,286046999.0,N
